owner,sensor,date,latitude,longitude,vertical_datum,wind_speed,wind_to_direction,wind_speed_of_gust,qcFlag 
LOOP,urn:ioos:station:wmo:lopl1:1,2013-02-01T00:02:00Z,28.8850,-90.0250,10.0,2.2,208.0,3.1,'11111222,11111222,11111222' 
LOOP,urn:ioos:station:wmo:lopl1:1,2013-02-01T00:17:00Z,28.8850,-90.0250,10.0,1.7,204.0,2.3,'11111222,11111222,11111222' 
LOOP,urn:ioos:station:wmo:lopl1:1,2013-02-01T00:32:00Z,28.8850,-90.0250,10.0,1.6,193.0,2.1,'11111222,11111222,11111222' 
LOOP,urn:ioos:station:wmo:lopl1:1,2013-02-01T00:47:00Z,28.8850,-90.0250,10.0,1.5,219.0,2.3,'11111222,11111222,11111222' 
LOOP,urn:ioos:station:wmo:lopl1:1,2013-02-01T01:02:00Z,28.8850,-90.0250,10.0,1.1,272.0,1.6,'11111222,11111222,11111222' 
LOOP,urn:ioos:station:wmo:lopl1:1,2013-02-01T01:17:00Z,28.8850,-90.0250,10.0,1.4,239.0,2.1,'11111222,11111222,11111222' 
LOOP,urn:ioos:station:wmo:lopl1:1,2013-02-01T01:32:00Z,28.8850,-90.0250,10.0,1.4,248.0,2.6,'11111222,11111222,11111222' 
LOOP,urn:ioos:station:wmo:lopl1:1,2013-02-01T01:47:00Z,28.8850,-90.0250,10.0,2.0,258.0,2.8,'11111222,11111222,11111222' 
LOOP,urn:ioos:station:wmo:lopl1:1,2013-02-01T02:02:00Z,28.8850,-90.0250,10.0,2.2,269.0,3.8,'11111222,11111222,11111222' 
LOOP,urn:ioos:station:wmo:lopl1:1,2013-02-01T02:17:00Z,28.8850,-90.0250,10.0,1.9,282.0,2.7,'11111222,11111222,11111222' 
LOOP,urn:ioos:station:wmo:lopl1:1,2013-02-01T02:32:00Z,28.8850,-90.0250,10.0,2.1,244.0,3.8,'11111222,11111222,11111222' 
LOOP,urn:ioos:station:wmo:lopl1:1,2013-02-01T02:47:00Z,28.8850,-90.0250,10.0,2.4,234.0,3.4,'11111222,11111222,11111222' 
LOOP,urn:ioos:station:wmo:lopl1:1,2013-02-01T03:07:00Z,28.8850,-90.0250,10.0,1.4,283.0,3.5,'11111222,11111222,11111222' 
LOOP,urn:ioos:station:wmo:lopl1:1,2013-02-01T03:22:00Z,28.8850,-90.0250,10.0,2.9,256.0,5.1,'11111222,11111222,11111222' 
LOOP,urn:ioos:station:wmo:lopl1:1,2013-02-01T03:37:00Z,28.8850,-90.0250,10.0,3.2,270.0,4.5,'11111222,11111222,11111222' 
LOOP,urn:ioos:station:wmo:lopl1:1,2013-02-01T03:52:00Z,28.8850,-90.0250,10.0,2.5,302.0,3.6,'11111222,11111222,11111222' 
LOOP,urn:ioos:station:wmo:lopl1:1,2013-02-01T04:07:00Z,28.8850,-90.0250,10.0,3.0,293.0,4.5,'11111222,11111222,11111222' 
LOOP,urn:ioos:station:wmo:lopl1:1,2013-02-01T04:22:00Z,28.8850,-90.0250,10.0,3.5,303.0,4.9,'11111222,11111222,11111222' 
LOOP,urn:ioos:station:wmo:lopl1:1,2013-02-01T04:37:00Z,28.8850,-90.0250,10.0,3.9,290.0,5.2,'11111222,11111222,11111222' 
LOOP,urn:ioos:station:wmo:lopl1:1,2013-02-01T04:52:00Z,28.8850,-90.0250,10.0,4.0,305.0,4.8,'11111222,11111222,11111222' 
LOOP,urn:ioos:station:wmo:lopl1:1,2013-02-01T05:07:00Z,28.8850,-90.0250,10.0,4.1,290.0,5.7,'11111222,11111222,11111222' 
LOOP,urn:ioos:station:wmo:lopl1:1,2013-02-01T05:22:00Z,28.8850,-90.0250,10.0,5.2,300.0,6.4,'11111222,11111222,11111222' 
LOOP,urn:ioos:station:wmo:lopl1:1,2013-02-01T05:37:00Z,28.8850,-90.0250,10.0,4.1,305.0,5.8,'11111222,11111222,11111222' 
LOOP,urn:ioos:station:wmo:lopl1:1,2013-02-01T05:52:00Z,28.8850,-90.0250,10.0,4.9,314.0,6.8,'11111222,11111222,11111222' 
LOOP,urn:ioos:station:wmo:lopl1:1,2013-02-01T06:07:00Z,28.8850,-90.0250,10.0,5.1,299.0,6.7,'11111222,11111222,11111222' 
LOOP,urn:ioos:station:wmo:lopl1:1,2013-02-01T06:22:00Z,28.8850,-90.0250,10.0,5.2,293.0,7.0,'11111222,11111222,11111222' 
LOOP,urn:ioos:station:wmo:lopl1:1,2013-02-01T06:37:00Z,28.8850,-90.0250,10.0,5.6,312.0,8.9,'11111222,11111222,11111222' 
LOOP,urn:ioos:station:wmo:lopl1:1,2013-02-01T06:52:00Z,28.8850,-90.0250,10.0,6.1,306.0,7.9,'11111222,11111222,11111222' 
LOOP,urn:ioos:station:wmo:lopl1:1,2013-02-01T07:07:00Z,28.8850,-90.0250,10.0,6.3,301.0,7.6,'11111222,11111222,11111222' 
LOOP,urn:ioos:station:wmo:lopl1:1,2013-02-01T07:22:00Z,28.8850,-90.0250,10.0,5.6,305.0,7.0,'11111222,11111222,11111222' 
LOOP,urn:ioos:station:wmo:lopl1:1,2013-02-01T07:37:00Z,28.8850,-90.0250,10.0,6.2,311.0,7.6,'11111222,11111222,11111222' 
LOOP,urn:ioos:station:wmo:lopl1:1,2013-02-01T07:52:00Z,28.8850,-90.0250,10.0,5.8,307.0,7.1,'11111222,11111222,11111222' 
LOOP,urn:ioos:station:wmo:lopl1:1,2013-02-01T08:07:00Z,28.8850,-90.0250,10.0,4.4,315.0,7.0,'11111222,11111222,11111222' 
LOOP,urn:ioos:station:wmo:lopl1:1,2013-02-01T08:22:00Z,28.8850,-90.0250,10.0,4.8,317.0,7.3,'11111222,11111222,11111222' 
LOOP,urn:ioos:station:wmo:lopl1:1,2013-02-01T08:37:00Z,28.8850,-90.0250,10.0,4.6,317.0,6.7,'11111222,11111222,11111222' 
LOOP,urn:ioos:station:wmo:lopl1:1,2013-02-01T08:52:00Z,28.8850,-90.0250,10.0,3.6,330.0,5.3,'11111222,11111222,11111222' 
LOOP,urn:ioos:station:wmo:lopl1:1,2013-02-01T09:07:00Z,28.8850,-90.0250,10.0,4.0,332.0,5.7,'11111222,11111222,11111222' 
LOOP,urn:ioos:station:wmo:lopl1:1,2013-02-01T09:22:00Z,28.8850,-90.0250,10.0,3.6,331.0,5.2,'11111222,11111222,11111222' 
LOOP,urn:ioos:station:wmo:lopl1:1,2013-02-01T09:37:00Z,28.8850,-90.0250,10.0,3.8,327.0,5.8,'11111222,11111222,11111222' 
LOOP,urn:ioos:station:wmo:lopl1:1,2013-02-01T09:52:00Z,28.8850,-90.0250,10.0,3.1,332.0,4.8,'11111222,11111222,11111222' 
LOOP,urn:ioos:station:wmo:lopl1:1,2013-02-01T10:12:00Z,28.8850,-90.0250,10.0,3.8,332.0,5.6,'11111222,11111222,11111222' 
LOOP,urn:ioos:station:wmo:lopl1:1,2013-02-01T10:27:00Z,28.8850,-90.0250,10.0,3.5,332.0,5.5,'11111222,11111222,11111222' 
LOOP,urn:ioos:station:wmo:lopl1:1,2013-02-01T10:42:00Z,28.8850,-90.0250,10.0,3.2,332.0,4.8,'11111222,11111222,11111222' 
LOOP,urn:ioos:station:wmo:lopl1:1,2013-02-01T10:57:00Z,28.8850,-90.0250,10.0,3.2,337.0,5.0,'11111222,11111222,11111222' 
LOOP,urn:ioos:station:wmo:lopl1:1,2013-02-01T11:12:00Z,28.8850,-90.0250,10.0,3.2,319.0,5.1,'11111222,11111222,11111222' 
LOOP,urn:ioos:station:wmo:lopl1:1,2013-02-01T11:27:00Z,28.8850,-90.0250,10.0,3.0,325.0,4.9,'11111222,11111222,11111222' 
LOOP,urn:ioos:station:wmo:lopl1:1,2013-02-01T11:42:00Z,28.8850,-90.0250,10.0,4.2,346.0,5.4,'11111222,11111222,11111222' 
LOOP,urn:ioos:station:wmo:lopl1:1,2013-02-01T11:57:00Z,28.8850,-90.0250,10.0,4.1,337.0,5.6,'11111222,11111222,11111222' 
LOOP,urn:ioos:station:wmo:lopl1:1,2013-02-01T12:12:00Z,28.8850,-90.0250,10.0,3.7,323.0,5.4,'11111222,11111222,11111222' 
LOOP,urn:ioos:station:wmo:lopl1:1,2013-02-01T12:27:00Z,28.8850,-90.0250,10.0,4.6,343.0,6.0,'11111222,11111222,11111222' 
LOOP,urn:ioos:station:wmo:lopl1:1,2013-02-01T12:42:00Z,28.8850,-90.0250,10.0,4.4,357.0,5.7,'11111222,11111222,11111222' 
LOOP,urn:ioos:station:wmo:lopl1:1,2013-02-01T12:57:00Z,28.8850,-90.0250,10.0,5.0,357.0,6.0,'11111222,11111222,11111222' 
LOOP,urn:ioos:station:wmo:lopl1:1,2013-02-01T13:12:00Z,28.8850,-90.0250,10.0,4.8,353.0,6.1,'11111222,11111222,11111222' 
LOOP,urn:ioos:station:wmo:lopl1:1,2013-02-01T13:27:00Z,28.8850,-90.0250,10.0,4.7,351.0,6.0,'11111222,11111222,11111222' 
LOOP,urn:ioos:station:wmo:lopl1:1,2013-02-01T13:42:00Z,28.8850,-90.0250,10.0,4.3,338.0,5.5,'11111222,11111222,11111222' 
LOOP,urn:ioos:station:wmo:lopl1:1,2013-02-01T13:57:00Z,28.8850,-90.0250,10.0,6.0,4.0,7.1,'11111222,11111222,11111222' 
LOOP,urn:ioos:station:wmo:lopl1:1,2013-02-01T14:12:00Z,28.8850,-90.0250,10.0,6.2,352.0,7.6,'11111222,11111222,11111222' 
LOOP,urn:ioos:station:wmo:lopl1:1,2013-02-01T14:27:00Z,28.8850,-90.0250,10.0,6.6,357.0,7.8,'11111222,11111222,11111222' 
LOOP,urn:ioos:station:wmo:lopl1:1,2013-02-01T14:42:00Z,28.8850,-90.0250,10.0,7.1,359.0,8.8,'11111222,11111222,11111222' 
LOOP,urn:ioos:station:wmo:lopl1:1,2013-02-01T14:57:00Z,28.8850,-90.0250,10.0,6.6,9.0,8.5,'11111222,11111222,11111222' 
LOOP,urn:ioos:station:wmo:lopl1:1,2013-02-01T15:12:00Z,28.8850,-90.0250,10.0,8.0,359.0,9.6,'11111222,11111222,11111222' 
LOOP,urn:ioos:station:wmo:lopl1:1,2013-02-01T15:27:00Z,28.8850,-90.0250,10.0,7.0,0.0,9.0,'11111222,11111222,11111222' 
LOOP,urn:ioos:station:wmo:lopl1:1,2013-02-01T15:42:00Z,28.8850,-90.0250,10.0,7.4,11.0,8.5,'11111222,11111222,11111222' 
LOOP,urn:ioos:station:wmo:lopl1:1,2013-02-01T15:57:00Z,28.8850,-90.0250,10.0,7.1,359.0,8.3,'11111222,11111222,11111222' 
LOOP,urn:ioos:station:wmo:lopl1:1,2013-02-01T16:12:00Z,28.8850,-90.0250,10.0,6.2,15.0,8.1,'11111222,11111222,11111222' 
LOOP,urn:ioos:station:wmo:lopl1:1,2013-02-01T16:27:00Z,28.8850,-90.0250,10.0,7.2,10.0,8.4,'11111222,11111222,11111222' 
LOOP,urn:ioos:station:wmo:lopl1:1,2013-02-01T16:42:00Z,28.8850,-90.0250,10.0,7.5,12.0,9.8,'11111222,11111222,11111222' 
LOOP,urn:ioos:station:wmo:lopl1:1,2013-02-01T16:57:00Z,28.8850,-90.0250,10.0,8.8,0.0,10.3,'11111222,11111222,11111222' 
LOOP,urn:ioos:station:wmo:lopl1:1,2013-02-01T17:17:00Z,28.8850,-90.0250,10.0,8.3,11.0,9.6,'11111222,11111222,11111222' 
LOOP,urn:ioos:station:wmo:lopl1:1,2013-02-01T17:32:00Z,28.8850,-90.0250,10.0,6.8,17.0,8.2,'11111222,11111222,11111222' 
LOOP,urn:ioos:station:wmo:lopl1:1,2013-02-01T17:47:00Z,28.8850,-90.0250,10.0,6.9,15.0,8.4,'11111222,11111222,11111222' 
LOOP,urn:ioos:station:wmo:lopl1:1,2013-02-01T18:02:00Z,28.8850,-90.0250,10.0,5.5,25.0,6.9,'11111222,11111222,11111222' 
LOOP,urn:ioos:station:wmo:lopl1:1,2013-02-01T18:17:00Z,28.8850,-90.0250,10.0,5.5,26.0,6.9,'11111222,11111222,11111222' 
LOOP,urn:ioos:station:wmo:lopl1:1,2013-02-01T18:32:00Z,28.8850,-90.0250,10.0,3.8,29.0,5.4,'11111222,11111222,11111222' 
LOOP,urn:ioos:station:wmo:lopl1:1,2013-02-01T18:47:00Z,28.8850,-90.0250,10.0,3.4,40.0,4.9,'11111222,11111222,11111222' 
LOOP,urn:ioos:station:wmo:lopl1:1,2013-02-01T19:02:00Z,28.8850,-90.0250,10.0,3.0,60.0,4.6,'11111222,11111222,11111222' 
LOOP,urn:ioos:station:wmo:lopl1:1,2013-02-01T19:17:00Z,28.8850,-90.0250,10.0,4.0,71.0,5.0,'11111222,11111222,11111222' 
LOOP,urn:ioos:station:wmo:lopl1:1,2013-02-01T19:32:00Z,28.8850,-90.0250,10.0,3.1,70.0,4.5,'11111222,11111222,11111222' 
LOOP,urn:ioos:station:wmo:lopl1:1,2013-02-01T19:47:00Z,28.8850,-90.0250,10.0,2.9,63.0,4.7,'11111222,11111222,11111222' 
LOOP,urn:ioos:station:wmo:lopl1:1,2013-02-01T20:02:00Z,28.8850,-90.0250,10.0,2.5,61.0,3.3,'11111222,11111222,11111222' 
LOOP,urn:ioos:station:wmo:lopl1:1,2013-02-01T20:22:00Z,28.8850,-90.0250,10.0,3.4,84.0,4.2,'11111222,11111222,11111222' 
LOOP,urn:ioos:station:wmo:lopl1:1,2013-02-01T20:37:00Z,28.8850,-90.0250,10.0,3.2,96.0,3.8,'11111222,11111222,11111222' 
LOOP,urn:ioos:station:wmo:lopl1:1,2013-02-01T20:52:00Z,28.8850,-90.0250,10.0,3.4,98.0,4.2,'11111222,11111222,11111222' 
LOOP,urn:ioos:station:wmo:lopl1:1,2013-02-01T21:07:00Z,28.8850,-90.0250,10.0,3.4,86.0,4.2,'11111222,11111222,11111222' 
LOOP,urn:ioos:station:wmo:lopl1:1,2013-02-01T21:22:00Z,28.8850,-90.0250,10.0,3.5,107.0,4.6,'11111222,11111222,11111222' 
LOOP,urn:ioos:station:wmo:lopl1:1,2013-02-01T21:37:00Z,28.8850,-90.0250,10.0,3.8,98.0,4.7,'11111222,11111222,11111222' 
LOOP,urn:ioos:station:wmo:lopl1:1,2013-02-01T21:52:00Z,28.8850,-90.0250,10.0,3.6,85.0,4.4,'11111222,11111222,11111222' 
LOOP,urn:ioos:station:wmo:lopl1:1,2013-02-01T22:07:00Z,28.8850,-90.0250,10.0,3.4,83.0,4.2,'11111222,11111222,11111222' 
LOOP,urn:ioos:station:wmo:lopl1:1,2013-02-01T22:22:00Z,28.8850,-90.0250,10.0,3.5,70.0,4.4,'11111222,11111222,11111222' 
LOOP,urn:ioos:station:wmo:lopl1:1,2013-02-01T22:37:00Z,28.8850,-90.0250,10.0,3.8,71.0,5.1,'11111222,11111222,11111222' 
LOOP,urn:ioos:station:wmo:lopl1:1,2013-02-01T22:52:00Z,28.8850,-90.0250,10.0,3.8,59.0,5.1,'11111222,11111222,11111222' 
LOOP,urn:ioos:station:wmo:lopl1:1,2013-02-01T23:07:00Z,28.8850,-90.0250,10.0,4.0,65.0,5.9,'11111222,11111222,11111222' 
LOOP,urn:ioos:station:wmo:lopl1:1,2013-02-01T23:22:00Z,28.8850,-90.0250,10.0,3.8,37.0,5.1,'11111222,11111222,11111222' 
LOOP,urn:ioos:station:wmo:lopl1:1,2013-02-01T23:37:00Z,28.8850,-90.0250,10.0,4.3,54.0,5.8,'11111222,11111222,11111222' 
LOOP,urn:ioos:station:wmo:lopl1:1,2013-02-01T23:52:00Z,28.8850,-90.0250,10.0,4.0,73.0,5.0,'11111222,11111222,11111222' 
LOOP,urn:ioos:station:wmo:lopl1:1,2013-02-02T00:07:00Z,28.8850,-90.0250,10.0,3.9,84.0,4.7,'11111222,11111222,11111222' 
LOOP,urn:ioos:station:wmo:lopl1:1,2013-02-02T00:22:00Z,28.8850,-90.0250,10.0,3.9,80.0,4.7,'11111222,11111222,11111222' 
LOOP,urn:ioos:station:wmo:lopl1:1,2013-02-02T00:37:00Z,28.8850,-90.0250,10.0,4.0,67.0,4.6,'11111222,11111222,11111222' 
LOOP,urn:ioos:station:wmo:lopl1:1,2013-02-02T00:52:00Z,28.8850,-90.0250,10.0,4.3,78.0,5.0,'11111222,11111222,11111222' 
LOOP,urn:ioos:station:wmo:lopl1:1,2013-02-02T01:07:00Z,28.8850,-90.0250,10.0,4.0,75.0,5.0,'11111222,11111222,11111222' 
LOOP,urn:ioos:station:wmo:lopl1:1,2013-02-02T01:22:00Z,28.8850,-90.0250,10.0,3.7,80.0,4.5,'11111222,11111222,11111222' 
LOOP,urn:ioos:station:wmo:lopl1:1,2013-02-02T01:37:00Z,28.8850,-90.0250,10.0,3.7,84.0,4.5,'11111222,11111222,11111222' 
LOOP,urn:ioos:station:wmo:lopl1:1,2013-02-02T01:57:00Z,28.8850,-90.0250,10.0,3.7,81.0,4.4,'11111222,11111222,11111222' 
LOOP,urn:ioos:station:wmo:lopl1:1,2013-02-02T02:12:00Z,28.8850,-90.0250,10.0,3.0,76.0,3.8,'11111222,11111222,11111222' 
LOOP,urn:ioos:station:wmo:lopl1:1,2013-02-02T02:27:00Z,28.8850,-90.0250,10.0,3.4,79.0,4.1,'11111222,11111222,11111222' 
LOOP,urn:ioos:station:wmo:lopl1:1,2013-02-02T02:42:00Z,28.8850,-90.0250,10.0,3.7,87.0,4.7,'11111222,11111222,11111222' 
LOOP,urn:ioos:station:wmo:lopl1:1,2013-02-02T02:57:00Z,28.8850,-90.0250,10.0,3.8,102.0,4.7,'11111222,11111222,11111222' 
LOOP,urn:ioos:station:wmo:lopl1:1,2013-02-02T03:12:00Z,28.8850,-90.0250,10.0,3.9,100.0,4.4,'11111222,11111222,11111222' 
LOOP,urn:ioos:station:wmo:lopl1:1,2013-02-02T03:27:00Z,28.8850,-90.0250,10.0,3.3,89.0,4.0,'11111222,11111222,11111222' 
LOOP,urn:ioos:station:wmo:lopl1:1,2013-02-02T03:42:00Z,28.8850,-90.0250,10.0,3.5,81.0,4.1,'11111222,11111222,11111222' 
LOOP,urn:ioos:station:wmo:lopl1:1,2013-02-02T03:57:00Z,28.8850,-90.0250,10.0,3.8,74.0,4.5,'11111222,11111222,11111222' 
LOOP,urn:ioos:station:wmo:lopl1:1,2013-02-02T04:12:00Z,28.8850,-90.0250,10.0,4.1,58.0,4.8,'11111222,11111222,11111222' 
LOOP,urn:ioos:station:wmo:lopl1:1,2013-02-02T04:27:00Z,28.8850,-90.0250,10.0,4.8,68.0,5.8,'11111222,11111222,11111222' 
LOOP,urn:ioos:station:wmo:lopl1:1,2013-02-02T04:47:00Z,28.8850,-90.0250,10.0,5.4,65.0,6.1,'11111222,11111222,11111222' 
LOOP,urn:ioos:station:wmo:lopl1:1,2013-02-02T05:02:00Z,28.8850,-90.0250,10.0,5.5,67.0,6.2,'11111222,11111222,11111222' 
LOOP,urn:ioos:station:wmo:lopl1:1,2013-02-02T05:17:00Z,28.8850,-90.0250,10.0,5.7,66.0,6.6,'11111222,11111222,11111222' 
LOOP,urn:ioos:station:wmo:lopl1:1,2013-02-02T05:32:00Z,28.8850,-90.0250,10.0,5.9,67.0,6.9,'11111222,11111222,11111222' 
LOOP,urn:ioos:station:wmo:lopl1:1,2013-02-02T05:47:00Z,28.8850,-90.0250,10.0,5.6,72.0,6.6,'11111222,11111222,11111222' 
LOOP,urn:ioos:station:wmo:lopl1:1,2013-02-02T06:02:00Z,28.8850,-90.0250,10.0,5.6,81.0,6.6,'11111222,11111222,11111222' 
LOOP,urn:ioos:station:wmo:lopl1:1,2013-02-02T06:17:00Z,28.8850,-90.0250,10.0,5.4,82.0,6.2,'11111222,11111222,11111222' 
LOOP,urn:ioos:station:wmo:lopl1:1,2013-02-02T06:32:00Z,28.8850,-90.0250,10.0,5.2,84.0,6.0,'11111222,11111222,11111222' 
LOOP,urn:ioos:station:wmo:lopl1:1,2013-02-02T06:47:00Z,28.8850,-90.0250,10.0,5.2,84.0,6.0,'11111222,11111222,11111222' 
LOOP,urn:ioos:station:wmo:lopl1:1,2013-02-02T07:02:00Z,28.8850,-90.0250,10.0,5.1,79.0,5.9,'11111222,11111222,11111222' 
LOOP,urn:ioos:station:wmo:lopl1:1,2013-02-02T07:17:00Z,28.8850,-90.0250,10.0,5.4,72.0,6.2,'11111222,11111222,11111222' 
LOOP,urn:ioos:station:wmo:lopl1:1,2013-02-02T07:32:00Z,28.8850,-90.0250,10.0,5.3,68.0,6.1,'11111222,11111222,11111222' 
LOOP,urn:ioos:station:wmo:lopl1:1,2013-02-02T07:47:00Z,28.8850,-90.0250,10.0,5.3,65.0,6.0,'11111222,11111222,11111222' 
LOOP,urn:ioos:station:wmo:lopl1:1,2013-02-02T08:02:00Z,28.8850,-90.0250,10.0,4.9,58.0,6.1,'11111222,11111222,11111222' 
LOOP,urn:ioos:station:wmo:lopl1:1,2013-02-02T08:17:00Z,28.8850,-90.0250,10.0,5.1,60.0,6.8,'11111222,11111222,11111222' 
LOOP,urn:ioos:station:wmo:lopl1:1,2013-02-02T08:32:00Z,28.8850,-90.0250,10.0,4.9,38.0,6.2,'11111222,11111222,11111222' 
LOOP,urn:ioos:station:wmo:lopl1:1,2013-02-02T08:47:00Z,28.8850,-90.0250,10.0,5.5,35.0,7.7,'11111222,11111222,11111222' 
LOOP,urn:ioos:station:wmo:lopl1:1,2013-02-02T09:02:00Z,28.8850,-90.0250,10.0,5.2,54.0,6.8,'11111222,11111222,11111222' 
LOOP,urn:ioos:station:wmo:lopl1:1,2013-02-02T09:17:00Z,28.8850,-90.0250,10.0,5.1,51.0,7.0,'11111222,11111222,11111222' 
LOOP,urn:ioos:station:wmo:lopl1:1,2013-02-02T09:32:00Z,28.8850,-90.0250,10.0,5.6,52.0,7.1,'11111222,11111222,11111222' 
LOOP,urn:ioos:station:wmo:lopl1:1,2013-02-02T09:47:00Z,28.8850,-90.0250,10.0,5.3,37.0,7.5,'11111222,11111222,11111222' 
LOOP,urn:ioos:station:wmo:lopl1:1,2013-02-02T10:02:00Z,28.8850,-90.0250,10.0,5.3,40.0,6.7,'11111222,11111222,11111222' 
LOOP,urn:ioos:station:wmo:lopl1:1,2013-02-02T10:17:00Z,28.8850,-90.0250,10.0,5.7,52.0,7.0,'11111222,11111222,11111222' 
LOOP,urn:ioos:station:wmo:lopl1:1,2013-02-02T10:42:00Z,28.8850,-90.0250,10.0,5.9,59.0,8.3,'11111222,11111222,11111222' 
LOOP,urn:ioos:station:wmo:lopl1:1,2013-02-02T10:57:00Z,28.8850,-90.0250,10.0,6.1,42.0,7.3,'11111222,11111222,11111222' 
LOOP,urn:ioos:station:wmo:lopl1:1,2013-02-02T11:12:00Z,28.8850,-90.0250,10.0,6.8,31.0,8.8,'11111222,11111222,11111222' 
LOOP,urn:ioos:station:wmo:lopl1:1,2013-02-02T11:27:00Z,28.8850,-90.0250,10.0,7.2,32.0,10.4,'11111222,11111222,11111222' 
LOOP,urn:ioos:station:wmo:lopl1:1,2013-02-02T11:42:00Z,28.8850,-90.0250,10.0,7.2,43.0,10.3,'11111222,11111222,11111222' 
LOOP,urn:ioos:station:wmo:lopl1:1,2013-02-02T11:57:00Z,28.8850,-90.0250,10.0,7.9,60.0,11.0,'11111222,11111222,11111222' 
LOOP,urn:ioos:station:wmo:lopl1:1,2013-02-02T12:12:00Z,28.8850,-90.0250,10.0,7.5,50.0,10.0,'11111222,11111222,11111222' 
LOOP,urn:ioos:station:wmo:lopl1:1,2013-02-02T12:27:00Z,28.8850,-90.0250,10.0,8.2,56.0,11.1,'11111222,11111222,11111222' 
LOOP,urn:ioos:station:wmo:lopl1:1,2013-02-02T12:42:00Z,28.8850,-90.0250,10.0,7.4,45.0,10.4,'11111222,11111222,11111222' 
LOOP,urn:ioos:station:wmo:lopl1:1,2013-02-02T12:57:00Z,28.8850,-90.0250,10.0,7.9,37.0,10.4,'11111222,11111222,11111222' 
LOOP,urn:ioos:station:wmo:lopl1:1,2013-02-02T13:12:00Z,28.8850,-90.0250,10.0,7.4,34.0,10.8,'11111222,11111222,11111222' 
LOOP,urn:ioos:station:wmo:lopl1:1,2013-02-02T13:27:00Z,28.8850,-90.0250,10.0,7.4,55.0,9.4,'11111222,11111222,11111222' 
LOOP,urn:ioos:station:wmo:lopl1:1,2013-02-02T13:42:00Z,28.8850,-90.0250,10.0,7.0,59.0,9.2,'11111222,11111222,11111222' 
LOOP,urn:ioos:station:wmo:lopl1:1,2013-02-02T13:57:00Z,28.8850,-90.0250,10.0,7.5,64.0,9.0,'11111222,11111222,11111222' 
LOOP,urn:ioos:station:wmo:lopl1:1,2013-02-02T14:17:00Z,28.8850,-90.0250,10.0,8.7,62.0,9.7,'11111222,11111222,11111222' 
LOOP,urn:ioos:station:wmo:lopl1:1,2013-02-02T14:32:00Z,28.8850,-90.0250,10.0,8.4,66.0,9.5,'11111222,11111222,11111222' 
LOOP,urn:ioos:station:wmo:lopl1:1,2013-02-02T14:47:00Z,28.8850,-90.0250,10.0,8.1,71.0,9.0,'11111222,11111222,11111222' 
LOOP,urn:ioos:station:wmo:lopl1:1,2013-02-02T15:02:00Z,28.8850,-90.0250,10.0,7.0,72.0,8.3,'11111222,11111222,11111222' 
LOOP,urn:ioos:station:wmo:lopl1:1,2013-02-02T15:17:00Z,28.8850,-90.0250,10.0,6.5,75.0,7.6,'11111222,11111222,11111222' 
LOOP,urn:ioos:station:wmo:lopl1:1,2013-02-02T15:32:00Z,28.8850,-90.0250,10.0,7.0,66.0,8.1,'11111222,11111222,11111222' 
LOOP,urn:ioos:station:wmo:lopl1:1,2013-02-02T15:47:00Z,28.8850,-90.0250,10.0,6.3,76.0,7.4,'11111222,11111222,11111222' 
LOOP,urn:ioos:station:wmo:lopl1:1,2013-02-02T16:02:00Z,28.8850,-90.0250,10.0,6.3,76.0,7.2,'11111222,11111222,11111222' 
LOOP,urn:ioos:station:wmo:lopl1:1,2013-02-02T16:17:00Z,28.8850,-90.0250,10.0,6.1,76.0,6.9,'11111222,11111222,11111222' 
LOOP,urn:ioos:station:wmo:lopl1:1,2013-02-02T16:32:00Z,28.8850,-90.0250,10.0,5.6,78.0,6.4,'11111222,11111222,11111222' 
LOOP,urn:ioos:station:wmo:lopl1:1,2013-02-02T16:47:00Z,28.8850,-90.0250,10.0,6.5,92.0,7.1,'11111222,11111222,11111222' 
LOOP,urn:ioos:station:wmo:lopl1:1,2013-02-02T17:02:00Z,28.8850,-90.0250,10.0,6.5,91.0,7.0,'11111222,11111222,11111222' 
LOOP,urn:ioos:station:wmo:lopl1:1,2013-02-02T17:17:00Z,28.8850,-90.0250,10.0,5.9,93.0,6.4,'11111222,11111222,11111222' 
LOOP,urn:ioos:station:wmo:lopl1:1,2013-02-02T17:32:00Z,28.8850,-90.0250,10.0,5.9,90.0,6.5,'11111222,11111222,11111222' 
LOOP,urn:ioos:station:wmo:lopl1:1,2013-02-02T17:47:00Z,28.8850,-90.0250,10.0,5.9,96.0,6.3,'11111222,11111222,11111222' 
LOOP,urn:ioos:station:wmo:lopl1:1,2013-02-02T18:02:00Z,28.8850,-90.0250,10.0,5.5,95.0,6.1,'11111222,11111222,11111222' 
LOOP,urn:ioos:station:wmo:lopl1:1,2013-02-02T18:17:00Z,28.8850,-90.0250,10.0,4.8,89.0,5.6,'11111222,11111222,11111222' 
LOOP,urn:ioos:station:wmo:lopl1:1,2013-02-02T18:32:00Z,28.8850,-90.0250,10.0,4.8,89.0,5.5,'11111222,11111222,11111222' 
LOOP,urn:ioos:station:wmo:lopl1:1,2013-02-02T18:52:00Z,28.8850,-90.0250,10.0,4.5,96.0,5.2,'11111222,11111222,11111222' 
LOOP,urn:ioos:station:wmo:lopl1:1,2013-02-02T19:07:00Z,28.8850,-90.0250,10.0,4.1,110.0,4.7,'11111222,11111222,11111222' 
LOOP,urn:ioos:station:wmo:lopl1:1,2013-02-02T19:22:00Z,28.8850,-90.0250,10.0,3.8,105.0,4.3,'11111222,11111222,11111222' 
LOOP,urn:ioos:station:wmo:lopl1:1,2013-02-02T19:37:00Z,28.8850,-90.0250,10.0,3.8,102.0,4.2,'11111222,11111222,11111222' 
LOOP,urn:ioos:station:wmo:lopl1:1,2013-02-02T19:52:00Z,28.8850,-90.0250,10.0,3.6,98.0,4.2,'11111222,11111222,11111222' 
LOOP,urn:ioos:station:wmo:lopl1:1,2013-02-02T20:07:00Z,28.8850,-90.0250,10.0,3.8,119.0,4.4,'11111222,11111222,11111222' 
LOOP,urn:ioos:station:wmo:lopl1:1,2013-02-02T20:22:00Z,28.8850,-90.0250,10.0,3.7,117.0,4.0,'11111222,11111222,11111222' 
LOOP,urn:ioos:station:wmo:lopl1:1,2013-02-02T20:37:00Z,28.8850,-90.0250,10.0,3.7,124.0,4.0,'11111222,11111222,11111222' 
LOOP,urn:ioos:station:wmo:lopl1:1,2013-02-02T20:52:00Z,28.8850,-90.0250,10.0,3.2,125.0,3.5,'11111222,11111222,11111222' 
LOOP,urn:ioos:station:wmo:lopl1:1,2013-02-02T21:07:00Z,28.8850,-90.0250,10.0,2.9,113.0,3.2,'11111222,11111222,11111222' 
LOOP,urn:ioos:station:wmo:lopl1:1,2013-02-02T21:22:00Z,28.8850,-90.0250,10.0,2.8,128.0,3.1,'11111222,11111222,11111222' 
LOOP,urn:ioos:station:wmo:lopl1:1,2013-02-02T21:37:00Z,28.8850,-90.0250,10.0,2.9,126.0,3.2,'11111222,11111222,11111222' 
LOOP,urn:ioos:station:wmo:lopl1:1,2013-02-02T21:52:00Z,28.8850,-90.0250,10.0,3.4,146.0,3.6,'11111222,11111222,11111222' 
LOOP,urn:ioos:station:wmo:lopl1:1,2013-02-02T22:07:00Z,28.8850,-90.0250,10.0,3.6,139.0,3.8,'11111222,11111222,11111222' 
LOOP,urn:ioos:station:wmo:lopl1:1,2013-02-02T22:22:00Z,28.8850,-90.0250,10.0,3.4,151.0,3.7,'11111222,11111222,11111222' 
LOOP,urn:ioos:station:wmo:lopl1:1,2013-02-02T22:37:00Z,28.8850,-90.0250,10.0,3.3,154.0,3.6,'11111222,11111222,11111222' 
LOOP,urn:ioos:station:wmo:lopl1:1,2013-02-02T22:52:00Z,28.8850,-90.0250,10.0,3.7,157.0,4.0,'11111222,11111222,11111222' 
LOOP,urn:ioos:station:wmo:lopl1:1,2013-02-02T23:07:00Z,28.8850,-90.0250,10.0,4.0,162.0,4.2,'11111222,11111222,11111222' 
LOOP,urn:ioos:station:wmo:lopl1:1,2013-02-02T23:22:00Z,28.8850,-90.0250,10.0,4.1,169.0,4.6,'11111222,11111222,11111222' 
LOOP,urn:ioos:station:wmo:lopl1:1,2013-02-02T23:37:00Z,28.8850,-90.0250,10.0,4.0,172.0,4.2,'11111222,11111222,11111222' 
LOOP,urn:ioos:station:wmo:lopl1:1,2013-02-02T23:52:00Z,28.8850,-90.0250,10.0,3.8,166.0,4.0,'11111222,11111222,11111222' 
LOOP,urn:ioos:station:wmo:lopl1:1,2013-02-03T00:07:00Z,28.8850,-90.0250,10.0,3.6,173.0,3.9,'11111222,11111222,11111222' 
LOOP,urn:ioos:station:wmo:lopl1:1,2013-02-03T00:22:00Z,28.8850,-90.0250,10.0,3.9,177.0,4.4,'11111222,11111222,11111222' 
LOOP,urn:ioos:station:wmo:lopl1:1,2013-02-03T00:37:00Z,28.8850,-90.0250,10.0,3.7,176.0,3.8,'11111222,11111222,11111222' 
LOOP,urn:ioos:station:wmo:lopl1:1,2013-02-03T00:52:00Z,28.8850,-90.0250,10.0,3.9,172.0,4.2,'11111222,11111222,11111222' 
LOOP,urn:ioos:station:wmo:lopl1:1,2013-02-03T01:07:00Z,28.8850,-90.0250,10.0,3.3,175.0,3.5,'11111222,11111222,11111222' 
LOOP,urn:ioos:station:wmo:lopl1:1,2013-02-03T01:22:00Z,28.8850,-90.0250,10.0,3.2,181.0,3.4,'11111222,11111222,11111222' 
LOOP,urn:ioos:station:wmo:lopl1:1,2013-02-03T01:42:00Z,28.8850,-90.0250,10.0,2.3,183.0,2.6,'11111222,11111222,11111222' 
LOOP,urn:ioos:station:wmo:lopl1:1,2013-02-03T01:57:00Z,28.8850,-90.0250,10.0,2.6,187.0,2.9,'11111222,11111222,11111222' 
LOOP,urn:ioos:station:wmo:lopl1:1,2013-02-03T02:12:00Z,28.8850,-90.0250,10.0,2.4,200.0,2.6,'11111222,11111222,11111222' 